Find Starlink 35792

NORAD ID: 67092 Int'l Des: 2025-298 Owner: SPXS Country: US Constellation: starlink operational
LEOCIRCULAR

实时位置

正在加载3D地球...

关于 Starlink 35792

正在加载描述...

即将过境

Passes for default location (London). Set your location on the main map for personalized predictions.

高度历史

Loading altitude history...

两行轨道根数

1 67092U 25298T 26106.73487971 .00003060 00000-0 26406-3 0 9991
2 67092 70.0001 278.6247 0002661 265.8150 94.2705 14.98335535 18914
Epoch: Apr 16, 2026 • Age: 17 hours

当前状态

高度 587.6 km
速度 7.57 km/s
星下点 -45.10°S, 115.77°W
发射日期 Dec 14, 2025
运行时间 0.3 years
类型 internet

技术详情

分类 Payload
质量 575.00 kg
干质量 530.00 kg
总质量 575.00 kg
长度 0.30 m
直径 4.10 m
跨度 29.00 m
形状 Box + pan
制造商 SPXS
平台类型 Starlink V2MO
阶段状态 In Orbit
所有者/国家 SPXS/US

Most Searched